Regional Weather Roundup
Issued by NWS

Home | Current Version | Previous Version | Graphics & Text | Print | Product List | Glossary On
Versions: 1 2 3 4 5 6 7 8 9 10 11 12 13 14 15 16 17 18 19 20 21 22 23 24 25 26 27 28 29 30 31 32 33 34 35 36 37 38 39 40 41 42 43 44 45 46 47 48 49 50
989
ASUS43 KDMX 300701
RWRIA

WEATHER ROUNDUP FOR IOWA
NATIONAL WEATHER SERVICE DES MOINES IA
200 AM CDT TUE MAY 30 2017

NOTE: "FAIR" INDICATES FEW OR NO CLOUDS BELOW 12,000 FEET WITH NO
SIGNIFICANT WEATHER AND/OR OBSTRUCTIONS TO VISIBILITY.

* - THESE STATIONS ARE NOT NWS STATIONS...THUS NOT UNDER NWS
QUALITY CONTROL.  THEY ALSO DO NOT REPORT WEATHER SUCH
AS PRECIPITATION OR FOG.

IAZ001>003-012>014-020>022-031>034-043>046-300800-
   NORTHWEST IOWA

CITY           SKY/WX    TMP DP  RH WIND       PRES   REMARKS
CARROLL *      MOCLDY    54  46  76 W7        30.01S
CHEROKEE *     PTCLDY    45  43  95 CALM      30.01S
DENISON *      PTCLDY    50  45  81 CALM      30.04R
LE MARS *      CLOUDY    50  43  76 CALM      30.02S
ORANGE CITY *  CLOUDY    52  45  76 W7        30.00F
SHELDON *      PTCLDY    52  43  71 W6        29.98S
SIOUX CITY     CLOUDY    50  44  80 CALM      30.02S
SPENCER        PTCLDY    46  42  86 W6        29.99S
STORM LAKE *   CLEAR     50  41  71 W7        30.01S
$$

IAZ055>058-069>071-079>083-090>094-300800-
   SOUTHWEST IOWA

CITY           SKY/WX    TMP DP  RH WIND       PRES   REMARKS
ATLANTIC *     PTCLDY    50  46  87 CALM      30.03S
AUDUBON *      PTCLDY    50  45  81 CALM      30.03F
CLARINDA *     CLEAR     50  46  87 CALM      30.07S
COUNCIL BLFS * CLEAR     55  45  67 SW7       30.04S
CRESTON *      PTCLDY    54  43  66 W3        30.05S
HARLAN  *      PTCLDY    50  48  93 CALM      30.06F
LAMONI         CLEAR     54  45  71 W5        30.04S
RED OAK *      CLEAR     50  46  87 CALM      30.04S
SHENANDOAH *   CLEAR     52  46  82 CALM      30.05S
$$

IAZ047>049-059>061-072>074-084-300800-
   CENTRAL IOWA

CITY           SKY/WX    TMP DP  RH WIND       PRES   REMARKS
AMES           CLEAR     52  46  80 W9        30.00R
ANKENY *       CLEAR     54  45  71 W7        30.02R
BOONE *        CLEAR     54  46  76 W6        30.00R
CHARITON *     CLEAR     52  45  76 W7        30.03R
DES MOINES     CLEAR     56  45  66 W5        30.01S
GRINNELL*      CLEAR     53  46  77 SW3       30.01S
KNOXVILLE *    CLEAR     54  45  71 SW6       30.00S
MARSHALLTOWN   CLEAR     51  47  86 SW6       29.98R
NEWTON *       CLEAR     54  46  76 SW5       29.99S
PELLA *        PTCLDY    55  46  70 NW3       30.02S
PERRY *          N/A     53  43  70 W8        30.02R
$$

IAZ004>006-015-016-023>025-035-036-300800-
   NORTH CENTRAL IOWA

CITY           SKY/WX    TMP DP  RH WIND       PRES   REMARKS
ALGONA *       CLEAR     50  46  87 SW9       29.98S
CLARION *      CLEAR     48  46  93 W6        29.98S
ESTHERVILLE    CLEAR     46  45  96 W8        29.97S
FORT DODGE *   CLEAR     46  41  81 CALM      29.99F
MASON CITY     CLEAR     50  44  80 W9        29.96S
FOREST CITY *    N/A     46  36  66 CALM      29.95F
WEBSTER CITY * CLEAR     50  45  81 W8        29.97S
IOWA FALLS *     N/A     52  47  83 W8        29.99S
$$

IAZ007>011-017>019-026>030-037>042-050>054-066-300800-
   NORTHEAST IOWA

CITY           SKY/WX    TMP DP  RH WIND       PRES   REMARKS
CEDAR RAPIDS   PTCLDY    51  47  86 W8        29.97R
CHARLES CITY * CLEAR     54  46  76 W10       29.95R
CLINTON *      CLEAR     51  47  86 W7        29.95S
DUBUQUE        MOCLDY    50  47  89 SW5       29.93S
MONTICELLO *   CLEAR     54  46  76 SW6       29.95R
OELWEIN *      PTCLDY    52  48  87 W7        29.95R
WATERLOO       CLEAR     53  46  77 W9        29.95R
$$

IAZ064-065-067-068-078-300800-
   EAST CENTRAL IOWA

CITY           SKY/WX    TMP DP  RH WIND       PRES   REMARKS
DAVENPORT      PTCLDY    55  46  71 W7        29.96S
IOWA CITY      CLEAR     54  46  74 W7        29.99R
MT. PLEASANT * CLEAR     53  44  71 SW5       29.99S
MUSCATINE *    CLEAR     55  46  71 W6        29.98R
QUAD CITIES      N/A     57  46  66 MISG      29.95S
$$

IAZ062-063-075>077-085>089-095>099-300800-
   SOUTHEAST IOWA

CITY           SKY/WX    TMP DP  RH WIND       PRES   REMARKS
BURLINGTON     CLEAR     57  46  66 NW6       29.98S
FAIRFIELD *    CLEAR     55  45  67 W6        30.00R
FORT MADISON * CLEAR     57  45  62 W5        30.00S
KEOKUK *       PTCLDY    54  46  76 W5        30.00R
OSKALOOSA *      N/A     53  45  74 W7        30.01S
OTTUMWA        CLEAR     50  46  86 W5        30.01R
WASHINGTON *   CLEAR     54  46  76 W6        30.00S
$$

ABBREVIATIONS USED IN REMARKS
   TC - TEMPERATURES IN CELSIUS
  WCI - WIND CHILL INDEX
   HX - HEAT INDEX
  VSB - VISIBILITY
$$





USA.gov is the U.S. government's official web portal to all federal, state and local government web resources and services.